Perry, IA

12:48 AM CDT on October 20, 2017 (GMT -0500)
Perry Municipal

Weather History for KPRO - January, 2013

Change the Weather History Date:

Wednesday, January 30, 2013

  Actual Average Record
Temperature  
Mean Temperature 20 °F -  
Max Temperature 29 °F 29 °F 62 °F (2012)
Min Temperature 12 °F 10 °F -20 °F (1991)
Degree Days  
Heating Degree Days 44    
Moisture  
Dew Point 18 °F    
Average Humidity 84    
Maximum Humidity 96    
Minimum Humidity 73    
Precipitation  
Precipitation 0.00 in - - ()
Sea Level Pressure  
Sea Level Pressure 29.69 in    
Wind  
Wind Speed 23 mph (NW)    
Max Wind Speed 30 mph    
Max Gust Speed 39 mph    
Visibility 5 miles    
Events Snow    
Averages and records for this station are not official NWS values.
T = Trace of Precipitation, MM = Missing Value Source: NWS Daily Summary

Daily Weather History Graph

Daily Weather History Graph

Search for Another Location

Airport or City:

Trip Planner

Search our weather history database for the weather conditions in past years. The results will help you decide how hot, cold, wet, or windy it might be!

Date:

Astronomy

Jan. 30, 2013 Rise Set
Actual Time 7:30 AM CST 5:29 PM CST
Civil Twilight 7:01 AM CST 5:59 PM CST
Nautical Twilight 6:27 AM CST 6:32 PM CST
Astronomical Twilight 5:54 AM CST 7:05 PM CST
Moon 9:33 PM CST (1/30) 8:54 AM CST (1/30)
Length of Visible Light 10h 58m
Length of Day
9h 59m
Waning Gibbous, 87% of the Moon is Illuminated
Jan 30
Waning Gibbous
Feb 3
Last Quarter
Feb 10
New
Feb 17
First Quarter
Feb 25
Full

Hourly Weather History & Observations

Time (CST) Temp. Windchill Dew Point Humidity Pressure Visibility Wind Dir Wind Speed Gust Speed Precip Events Conditions
12:15 AM 29.7 °F 16.1 °F 27.5 °F 92% 29.57 in 5.0 mi North 23.0 mph 32.2 mph N/A   Overcast
12:35 AM 29.8 °F 16.6 °F 27.5 °F 91% 29.58 in 5.0 mi North 21.9 mph 27.6 mph N/A   Overcast
12:55 AM 29.3 °F 15.9 °F 27.3 °F 92% 29.58 in 4.0 mi North 21.9 mph 29.9 mph N/A Snow Light Snow
1:15 AM 29.1 °F 16.4 °F 27.1 °F 92% 29.57 in 2.5 mi North 19.6 mph 28.8 mph N/A Snow Light Snow
1:35 AM 28.6 °F 14.1 °F 27.0 °F 94% 29.58 in 1.8 mi North 25.3 mph 33.4 mph N/A Snow Light Snow
1:55 AM 28.4 °F 14.1 °F 26.6 °F 93% 29.59 in 2.0 mi North 24.2 mph 33.4 mph N/A Snow Light Snow
2:15 AM 28.0 °F 13.6 °F 26.1 °F 92% 29.59 in 2.0 mi NNW 24.2 mph 28.8 mph N/A Snow Light Snow
2:35 AM 27.5 °F 12.6 °F 25.2 °F 91% 29.59 in 2.5 mi NNW 25.3 mph 32.2 mph N/A Snow Light Snow
2:55 AM 27.0 °F 11.0 °F 24.1 °F 89% 29.58 in 2.5 mi North 28.8 mph 35.7 mph N/A Snow Light Snow
3:15 AM 26.1 °F 9.6 °F 23.9 °F 92% 29.55 in 2.0 mi North 29.9 mph 36.8 mph N/A Snow Light Snow
3:35 AM 25.5 °F 9.1 °F 23.5 °F 92% 29.54 in 1.0 mi North 28.8 mph 39.1 mph N/A Snow Snow
3:55 AM 25.3 °F 10.0 °F 23.4 °F 92% 29.56 in 1.5 mi NNW 24.2 mph 35.7 mph N/A Snow Light Snow
4:15 AM 24.8 °F 9.3 °F 23.0 °F 93% 29.57 in 2.0 mi NNW 24.2 mph 31.1 mph N/A Snow Light Snow
4:35 AM 24.6 °F 9.4 °F 22.6 °F 92% 29.59 in 2.0 mi NNW 23.0 mph 32.2 mph N/A Snow Light Snow
4:55 AM 24.3 °F 8.3 °F 22.6 °F 94% 29.59 in 1.2 mi NNW 25.3 mph 34.5 mph N/A Snow Snow
5:15 AM 23.9 °F 7.2 °F 22.5 °F 94% 29.59 in 0.8 mi NNW 27.6 mph 34.5 mph N/A Snow Snow
5:35 AM 23.5 °F 7.6 °F 22.5 °F 96% 29.58 in 0.5 mi NNW 24.2 mph 32.2 mph N/A Snow Heavy Snow
5:55 AM 23.5 °F 7.6 °F 22.5 °F 96% 29.58 in 0.8 mi NNW 24.2 mph 35.7 mph N/A Snow Snow
6:15 AM 23.4 °F 7.7 °F 22.1 °F 95% 29.59 in 0.8 mi NNW 23.0 mph 32.2 mph N/A Snow Snow
6:35 AM 23.5 °F 8.0 °F 22.1 °F 94% 29.60 in 1.0 mi NNW 23.0 mph 31.1 mph N/A Snow Light Snow
6:55 AM 23.2 °F 7.5 °F 21.9 °F 95% 29.62 in 1.2 mi NNW 23.0 mph 29.9 mph N/A Snow Light Snow
7:15 AM 22.5 °F 6.2 °F 21.0 °F 94% 29.62 in 1.0 mi NNW 24.2 mph 34.5 mph N/A Snow Light Snow
7:35 AM 22.1 °F 6.0 °F 20.5 °F 93% 29.62 in 1.0 mi NNW 23.0 mph 32.2 mph N/A Snow Light Snow
7:55 AM 22.1 °F 4.8 °F 20.5 °F 93% 29.63 in 0.5 mi NNW 27.6 mph 33.4 mph N/A Snow Light Snow
8:15 AM 22.1 °F 5.4 °F 20.3 °F 93% 29.64 in 0.5 mi NNW 25.3 mph 33.4 mph N/A Snow Light Snow
8:35 AM 21.2 °F 3.3 °F 19.2 °F 92% 29.64 in 0.5 mi NNW 28.8 mph 33.4 mph N/A Snow Light Snow
8:55 AM 20.8 °F 4.4 °F 18.9 °F 92% 29.65 in 0.5 mi NNW 23.0 mph 35.7 mph N/A Snow Light Snow
9:15 AM 20.5 °F 3.5 °F 18.0 °F 90% 29.65 in 0.8 mi NNW 24.2 mph 32.2 mph N/A Snow Light Snow
9:35 AM 20.1 °F 2.7 °F 16.5 °F 86% 29.66 in 0.8 mi NNW 25.3 mph 36.8 mph N/A Snow Light Snow
9:55 AM 19.6 °F 1.1 °F 16.7 °F 89% 29.67 in 0.5 mi NNW 28.8 mph 35.7 mph N/A Snow Light Snow
10:15 AM 19.8 °F 2.2 °F 16.3 °F 87% 29.68 in 1.0 mi NNW 25.3 mph 34.5 mph N/A Snow Light Snow
10:35 AM 20.3 °F 2.3 °F 16.2 °F 84% 29.69 in 1.0 mi NNW 27.6 mph 34.5 mph N/A   Overcast
10:55 AM 20.3 °F 3.7 °F 16.2 °F 84% 29.70 in 0.8 mi NW 23.0 mph 34.5 mph N/A   Mostly Cloudy
11:15 AM 20.3 °F 2.6 °F 16.2 °F 84% 29.70 in 0.8 mi NW 26.5 mph 32.2 mph N/A Snow Light Snow
11:35 AM 20.7 °F 3.1 °F 16.2 °F 83% 29.70 in 0.8 mi NW 26.5 mph 34.5 mph N/A Snow Light Snow
11:55 AM 20.8 °F 4.0 °F 16.2 °F 82% 29.71 in 0.8 mi NW 24.2 mph 35.7 mph N/A Snow Light Snow
12:15 PM 21.0 °F 5.4 °F 16.5 °F 83% 29.70 in 1.2 mi NW 20.7 mph 33.4 mph N/A   Haze
12:35 PM 21.4 °F 4.1 °F 16.5 °F 82% 29.70 in 1.8 mi NW 26.5 mph 29.9 mph N/A   Haze
1:15 PM 22.5 °F 5.9 °F 16.9 °F 79% 29.69 in 2.0 mi NW 25.3 mph 33.4 mph N/A   Haze
1:35 PM 23.0 °F 6.3 °F 18.1 °F 82% 29.69 in 2.0 mi NW 26.5 mph 32.2 mph N/A   Haze
1:55 PM 23.0 °F 5.7 °F 17.1 °F 78% 29.69 in 2.5 mi NW 28.8 mph 34.5 mph N/A   Haze
2:15 PM 23.0 °F 7.6 °F 16.9 °F 77% 29.70 in 4.0 mi NW 21.9 mph 31.1 mph N/A   Haze
2:35 PM 23.0 °F 6.6 °F 16.5 °F 76% 29.71 in 3.0 mi NW 25.3 mph 33.4 mph N/A   Haze
2:55 PM 23.2 °F 7.1 °F 16.5 °F 76% 29.71 in 10.0 mi NNW 24.2 mph 32.2 mph N/A   Overcast
3:15 PM 22.8 °F 8.1 °F 16.2 °F 76% 29.72 in 10.0 mi NNW 19.6 mph 27.6 mph N/A   Overcast
3:35 PM 22.6 °F 6.8 °F 15.3 °F 73% 29.73 in 7.0 mi NNW 23.0 mph 31.1 mph N/A Snow Light Snow
3:55 PM 22.1 °F 6.0 °F 14.5 °F 73% 29.74 in 10.0 mi NNW 23.0 mph 31.1 mph N/A   Overcast
4:15 PM 21.7 °F 6.7 °F 15.4 °F 77% 29.74 in 10.0 mi NNW 19.6 mph 31.1 mph N/A Snow Light Snow
4:35 PM 21.6 °F 6.5 °F 14.4 °F 74% 29.75 in 10.0 mi NNW 19.6 mph 29.9 mph N/A   Overcast
4:55 PM 21.7 °F 8.0 °F 14.2 °F 73% 29.75 in 10.0 mi NW 16.1 mph 21.9 mph N/A   Overcast
5:15 PM 21.4 °F 8.0 °F 13.8 °F 73% 29.76 in 10.0 mi NW 15.0 mph 18.4 mph N/A   Overcast
5:35 PM 21.2 °F 8.3 °F 14.0 °F 74% 29.77 in 10.0 mi NW 13.8 mph - N/A   Overcast
5:55 PM 21.6 °F 9.3 °F 14.5 °F 74% 29.77 in 10.0 mi NW 12.7 mph - N/A   Overcast
6:15 PM 21.2 °F 8.3 °F 14.5 °F 75% 29.79 in 10.0 mi WNW 13.8 mph 18.4 mph N/A   Overcast
6:55 PM 20.8 °F 6.8 °F 14.7 °F 77% 29.80 in 10.0 mi WNW 16.1 mph 24.2 mph N/A   Overcast
7:15 PM 20.3 °F 4.8 °F 14.5 °F 78% 29.81 in 10.0 mi WNW 19.6 mph 26.5 mph N/A   Overcast
7:35 PM 20.1 °F 5.0 °F 14.9 °F 80% 29.81 in 10.0 mi WNW 18.4 mph - N/A   Overcast
7:55 PM 19.4 °F 3.2 °F 14.0 °F 80% 29.81 in 10.0 mi WNW 20.7 mph 26.5 mph N/A   Overcast
8:15 PM 18.5 °F 2.4 °F 13.1 °F 79% 29.82 in 10.0 mi WNW 19.6 mph 26.5 mph N/A   Overcast
8:35 PM 18.5 °F 2.9 °F 12.6 °F 78% 29.82 in 10.0 mi WNW 18.4 mph 24.2 mph N/A   Overcast
8:55 PM 18.0 °F 0.6 °F 12.2 °F 78% 29.83 in 10.0 mi WNW 23.0 mph 27.6 mph N/A   Overcast
9:15 PM 17.4 °F 1.0 °F 11.8 °F 79% 29.84 in 7.0 mi WNW 19.6 mph 24.2 mph N/A Snow Light Snow
9:35 PM 16.3 °F 0.1 °F 10.6 °F 78% 29.84 in 10.0 mi WNW 18.4 mph 27.6 mph N/A   Overcast
9:55 PM 15.1 °F -1.1 °F 10.2 °F 81% 29.85 in 10.0 mi WNW 17.3 mph 23.0 mph N/A   Mostly Cloudy
10:15 PM 14.9 °F -1.3 °F 8.8 °F 77% 29.84 in 10.0 mi WNW 17.3 mph 26.5 mph N/A   Mostly Cloudy
10:35 PM 14.5 °F -0.2 °F 8.6 °F 77% 29.85 in 10.0 mi WNW 13.8 mph - N/A   Scattered Clouds
10:55 PM 13.8 °F 0.2 °F 8.2 °F 78% 29.85 in 10.0 mi WNW 11.5 mph 18.4 mph N/A   Clear
11:15 PM 13.1 °F -1.4 °F 8.2 °F 81% 29.86 in 10.0 mi WNW 12.7 mph - N/A   Clear
11:35 PM 12.6 °F -2.7 °F 7.3 °F 80% 29.86 in 10.0 mi NW 13.8 mph 18.4 mph N/A   Clear
11:55 PM 12.0 °F -1.3 °F 7.2 °F 81% 29.86 in 10.0 mi WNW 10.4 mph 17.3 mph N/A   Clear